TimeEST,TemperatureF,Dew PointF,Humidity,Sea Level PressureIn,VisibilityMPH,Wind Direction,Wind SpeedMPH,Gust SpeedMPH,PrecipitationIn,Events,Conditions,WindDirDegrees,DateUTC
12:15 AM,45.9,38.5,75,30.22,10.0,NNE,5.8,-,N/A,,Overcast,20,2012-12-07 05:15:00
12:35 AM,45.5,38.3,76,30.22,10.0,NNE,9.2,-,N/A,,Overcast,30,2012-12-07 05:35:00
12:55 AM,45.3,38.1,76,30.21,10.0,NNE,5.8,-,N/A,,Overcast,30,2012-12-07 05:55:00
1:15 AM,45.0,37.9,76,30.20,10.0,NNE,8.1,-,N/A,,Overcast,30,2012-12-07 06:15:00
1:35 AM,45.1,38.1,76,30.20,10.0,NNE,6.9,-,N/A,,Overcast,30,2012-12-07 06:35:00
1:55 AM,45.1,38.3,77,30.20,10.0,NE,6.9,-,N/A,,Overcast,40,2012-12-07 06:55:00
2:15 AM,45.1,38.3,77,30.20,10.0,NNE,8.1,-,N/A,,Overcast,20,2012-12-07 07:15:00
2:35 AM,45.1,38.5,77,30.20,10.0,NNE,6.9,-,N/A,,Overcast,20,2012-12-07 07:35:00
2:55 AM,45.3,38.8,78,30.19,10.0,NNE,4.6,-,N/A,,Overcast,20,2012-12-07 07:55:00
3:15 AM,45.1,38.8,79,30.19,10.0,NNE,6.9,-,N/A,,Overcast,30,2012-12-07 08:15:00
3:35 AM,45.1,38.8,79,30.18,10.0,NNE,4.6,-,N/A,,Overcast,30,2012-12-07 08:35:00
3:55 AM,45.1,38.8,79,30.18,10.0,NNE,5.8,-,N/A,,Overcast,20,2012-12-07 08:55:00
4:15 AM,45.0,38.8,79,30.17,10.0,NNE,6.9,-,N/A,,Overcast,20,2012-12-07 09:15:00
4:35 AM,45.0,39.2,80,30.18,10.0,NNE,4.6,-,N/A,,Overcast,30,2012-12-07 09:35:00
4:55 AM,45.0,39.2,80,30.17,10.0,NNE,5.8,-,N/A,,Overcast,30,2012-12-07 09:55:00
5:15 AM,44.8,39.2,81,30.17,10.0,NNE,6.9,-,N/A,,Mostly Cloudy,30,2012-12-07 10:15:00
5:35 AM,44.1,39.2,83,30.17,10.0,NNE,4.6,-,N/A,,Scattered Clouds,20,2012-12-07 10:35:00
5:55 AM,43.9,39.2,84,30.17,10.0,North,3.5,-,N/A,,Clear,10,2012-12-07 10:55:00
6:56 AM,44.6,41.0,87,30.17,10.0,NNE,4.6,-,N/A,,Mostly Cloudy,20,2012-12-07 11:56:00
7:56 AM,46.4,41.0,81,30.18,10.0,NNE,3.5,-,N/A,,Mostly Cloudy,30,2012-12-07 12:56:00
8:56 AM,48.2,41.0,76,30.17,10.0,NE,8.1,-,N/A,,Scattered Clouds,50,2012-12-07 13:56:00
9:56 AM,50.0,44.6,82,30.17,10.0,ENE,5.8,-,N/A,,Scattered Clouds,70,2012-12-07 14:56:00
10:56 AM,53.6,46.4,77,30.14,10.0,NNE,3.5,-,N/A,,Clear,30,2012-12-07 15:56:00
11:56 AM,59.0,48.2,67,30.11,10.0,ENE,5.8,-,N/A,,Clear,60,2012-12-07 16:56:00
12:56 PM,62.6,51.8,68,30.08,10.0,East,4.6,-,N/A,,Clear,100,2012-12-07 17:56:00
1:56 PM,66.2,53.6,64,30.05,10.0,ENE,5.8,-,N/A,,Mostly Cloudy,70,2012-12-07 18:56:00
2:56 PM,66.2,55.4,68,30.04,10.0,ESE,4.6,-,N/A,,Overcast,110,2012-12-07 19:56:00
4:56 PM,64.4,59.0,83,30.03,10.0,ESE,3.5,-,N/A,,Overcast,120,2012-12-07 21:56:00
5:56 PM,62.6,59.0,88,30.02,10.0,Calm,Calm,-,N/A,,Clear,0,2012-12-07 22:56:00
6:56 PM,62.6,59.0,88,30.02,10.0,East,4.6,-,N/A,,Overcast,90,2012-12-07 23:56:00
7:56 PM,62.6,60.8,94,30.02,10.0,Calm,Calm,-,N/A,,Overcast,0,2012-12-08 00:56:00
8:15 PM,62.6,60.4,93,30.02,10.0,Calm,Calm,-,N/A,,Overcast,0,2012-12-08 01:15:00
8:35 PM,62.6,60.6,93,30.01,10.0,SE,3.5,-,N/A,,Overcast,130,2012-12-08 01:35:00
8:55 PM,62.6,60.8,94,30.01,10.0,SE,3.5,-,N/A,,Overcast,140,2012-12-08 01:55:00
8:56 PM,62.6,60.8,94,30.01,10.0,Calm,Calm,-,N/A,,Overcast,0,2012-12-08 01:56:00
9:15 PM,62.6,60.8,94,30.01,10.0,SSE,3.5,-,N/A,,Overcast,150,2012-12-08 02:15:00
9:35 PM,62.6,61.0,94,30.01,4.0,Calm,Calm,-,N/A,,Overcast,0,2012-12-08 02:35:00
9:55 PM,62.2,61.0,96,30.00,3.0,Calm,Calm,-,N/A,,Overcast,0,2012-12-08 02:55:00
9:56 PM,62.6,60.8,94,30.00,3.0,Calm,Calm,-,N/A,,Overcast,0,2012-12-08 02:56:00
10:15 PM,61.9,61.0,97,30.00,1.0,Calm,Calm,-,N/A,,Overcast,0,2012-12-08 03:15:00
10:55 PM,61.9,61.2,97,30.00,1.5,Calm,Calm,-,N/A,,Overcast,0,2012-12-08 03:55:00
11:35 PM,61.7,61.0,97,30.00,0.8,Calm,Calm,-,N/A,,Overcast,0,2012-12-08 04:35:00
11:55 PM,61.7,61.2,98,29.99,1.0,Calm,Calm,-,N/A,,Overcast,0,2012-12-08 04:55:00